GFSCGP_700_rhum_078.txt.gz
RH
78 82 79 96 94 98 98 98 90 78 99 88 92 97 98 98 78 73 76 76 87 99 100 100 99 100 97 97 94 97 100 92 92 78 76 85 81 92 96 75 85 82 78 75
91 84 96 100 92 99 98 95 99 100 97 96 98 99 88 100 95 63 79 84 84 98 99 95 100 100 89 99 95 98 99 98 99 94 82 85 88 88 86 84 87 88 89 99
98 93 98 99 98 98 92 98 99 97 100 94 97 96 89 96 98 92 94 99 95 99 98 100 100 100 99 99 100 99 100 91 83 92 94 97 88 76 73 79 82 84 90 85
96 99 97 98 99 99 99 99 97 94 97 99 84 92 97 94 99 100 100 100 98 100 100 100 100 100 98 94 90 96 94 91 99 99 96 96 97 96 96 98 89 94 89 86
93 97 94 100 99 100 99 97 96 91 95 99 100 94 98 100 100 100 99 99 99 89 100 99 99 100 90 92 97 93 88 95 90 72 88 90 98 99 100 98 97 100 100 94
99 90 86 89 87 89 88 92 93 95 94 94 99 99 98 96 99 100 100 100 100 97 98 99 100 98 97 86 80 75 76 80 82 87 93 95 97 99 90 99 94 99 98 98
92 97 98 93 97 99 98 98 94 88 92 95 99 94 98 90 86 97 100 98 99 100 100 100 99 90 76 68 64 69 68 71 79 76 77 80 82 87 90 88 81 83 82 82
98 98 99 99 90 92 95 85 70 69 87 96 86 94 95 92 100 97 100 98 99 97 100 97 96 89 83 78 72 70 71 70 71 70 69 71 77 79 81 77 73 71 78 78
97 98 99 96 91 93 89 90 85 89 85 66 90 90 87 98 95 100 100 100 100 99 96 96 78 83 81 79 74 69 67 65 67 73 76 79 81 86 84 80 77 75 73 78
87 97 99 96 88 84 73 72 72 68 73 78 77 68 79 78 93 99 94 95 99 100 87 82 69 71 72 78 74 72 70 68 65 62 76 85 84 85 84 82 79 83 84 84
87 89 82 80 78 77 67 65 53 58 68 52 59 68 82 71 65 67 68 71 81 74 73 76 66 67 67 67 67 65 65 67 69 71 71 69 76 82 82 81 79 78 75 71
83 86 97 93 81 72 61 56 49 52 58 60 50 61 75 76 67 58 52 53 53 52 49 45 43 43 44 46 47 47 46 45 44 43 42 40 39 38 37 36 35 34 37 38
76 79 86 76 70 64 60 52 50 47 44 59 48 62 73 73 65 61 54 50 50 48 48 47 47 46 46 45 44 43 42 40 38 36 35 35 34 34 35 34 32 30 28 27
70 65 65 65 76 66 67 60 54 46 56 50 54 60 71 68 62 59 57 54 52 51 50 50 51 51 49 47 45 45 43 42 40 38 36 32 31 32 31 30 28 29 30 29
67 58 58 66 68 66 61 61 59 53 51 56 51 57 56 63 66 62 57 58 59 58 59 60 60 58 57 55 53 51 48 42 38 37 37 36 35 32 30 28 29 30 30 30
58 68 59 57 60 60 61 58 60 59 58 60 55 56 62 68 67 66 65 65 66 66 68 69 66 63 61 59 58 56 54 52 50 47 43 38 34 30 28 25 23 24 29 34
55 60 61 72 64 58 58 62 67 69 65 63 66 61 59 62 63 65 68 71 72 76 79 83 81 78 72 62 53 46 41 40 40 39 38 37 36 33 30 30 30 29 28 30
58 59 59 70 65 63 56 57 57 57 60 65 68 70 69 70 70 71 74 78 78 85 88 89 82 67 57 53 51 47 42 39 38 38 37 36 35 36 32 27 30 31 32 33
60 52 54 68 66 55 53 49 52 56 53 51 56 61 65 70 76 80 83 85 85 84 72 60 56 53 43 37 39 39 38 36 34 33 32 31 31 30 30 26 25 27 26 29
64 61 56 53 56 41 53 51 53 56 62 50 52 55 60 67 69 69 69 60 56 53 46 35 32 32 35 39 40 37 32 27 27 29 34 39 40 38 36 32 30 27 26 30
54 55 62 65 64 57 49 43 52 60 49 45 47 49 53 57 58 54 44 37 35 34 36 41 46 46 42 34 27 22 18 17 18 18 19 18 19 22 36 46 42 38 35 38
55 64 63 66 72 53 41 44 46 45 42 45 50 54 57 57 52 48 44 40 39 42 48 50 48 40 28 24 24 24 25 24 22 20 18 17 18 19 18 16 34 50 47 58
53 49 53 42 48 45 43 42 42 40 36 38 40 42 48 50 48 45 43 39 40 49 56 58 50 39 31 29 28 28 28 26 24 21 17 15 14 14 16 18 20 18 48 65
48 50 49 46 43 43 45 45 43 42 44 44 45 43 44 46 43 42 40 43 53 62 64 57 45 35 34 34 34 34 35 40 38 34 32 31 28 28 26 25 24 22 20 55
48 48 44 39 39 40 39 42 44 45 46 46 44 44 42 42 43 43 49 61 65 66 57 45 39 39 40 42 44 42 37 33 28 20 13 10 10 12 12 14 18 20 18 26
39 39 42 40 36 38 37 40 43 45 45 42 41 42 45 47 50 56 63 68 66 53 44 44 46 50 49 38 18 8 9 6 6 6 7 8 8 7 6 5 4 6 10 16

GFSCGP_700_rhum_081.txt.gz
RH
90 100 99 98 97 98 97 98 97 93 93 87 82 80 73 86 83 86 87 87 95 79 68 86 100 100 100 98 94 96 94 99 97 88 95 86 69 62 51 50 51 53 55 56
95 96 94 96 97 99 99 99 97 93 93 94 73 86 74 79 94 98 89 99 91 85 77 84 100 100 100 98 93 100 100 99 98 95 86 83 96 90 78 76 75 83 82 69
100 94 97 97 98 98 99 100 99 98 76 93 90 94 89 86 85 100 98 98 80 82 84 99 100 100 100 100 98 98 100 100 100 100 96 91 97 100 98 92 90 87 86 91
95 95 97 98 98 99 100 79 98 99 97 89 91 85 88 77 80 77 98 83 78 83 96 100 97 99 100 100 97 100 100 100 99 98 99 98 99 96 94 98 94 91 89 91
96 89 98 97 98 99 98 100 96 97 99 96 98 79 99 85 87 93 100 100 100 99 99 84 99 99 99 98 93 94 95 97 96 95 97 96 98 94 97 97 99 98 98 97
91 93 95 95 95 97 96 93 95 96 98 96 97 91 96 97 99 100 98 100 100 96 88 95 100 100 100 98 98 92 90 93 93 92 99 95 96 98 98 93 98 93 94 80
96 96 97 88 98 90 97 95 95 99 98 97 99 84 98 98 99 99 99 100 100 93 97 98 100 100 100 100 83 80 76 81 77 74 73 78 78 94 90 95 94 87 88 87
96 98 98 97 99 98 98 94 90 94 92 92 96 96 97 98 99 99 98 100 100 100 100 99 100 100 100 94 84 80 78 75 72 72 70 69 76 77 79 81 83 81 82 84
98 99 100 95 91 93 96 85 80 69 59 64 92 97 98 99 100 100 100 99 100 100 99 100 99 100 99 95 84 80 78 74 73 75 74 74 73 78 78 81 84 83 80 80
97 98 97 89 85 77 80 73 76 74 74 75 68 76 89 99 100 100 100 100 98 99 100 96 98 92 88 82 85 79 74 72 71 67 64 74 79 83 85 86 87 85 84 81
88 98 84 89 82 81 87 67 59 60 64 47 58 69 81 95 95 88 96 99 99 98 98 97 98 89 83 84 82 79 77 75 74 72 71 69 66 69 73 79 82 82 81 79
78 92 90 84 68 65 84 69 60 52 54 53 49 68 84 83 75 73 82 79 72 75 86 90 84 78 59 56 53 51 49 46 44 43 42 39 39 39 39 37 38 38 37 36
74 80 86 75 67 74 75 69 62 56 55 53 47 65 81 69 68 75 71 68 68 65 62 59 56 53 53 52 50 47 46 44 44 42 41 39 35 32 34 35 34 34 33 31
63 75 86 72 89 83 76 58 52 50 54 40 54 71 76 74 70 75 74 66 63 62 59 60 63 60 57 55 53 51 49 48 48 46 42 40 37 35 33 30 30 30 31 30
67 65 62 75 74 65 66 69 66 53 56 51 58 64 74 71 72 68 62 63 61 60 62 60 59 58 57 56 55 54 51 48 45 42 41 38 36 37 37 35 33 31 30 29
52 59 57 57 57 76 68 61 74 57 65 58 55 64 75 61 59 59 59 57 56 58 60 60 60 61 61 59 59 59 55 50 46 44 42 41 41 41 41 38 34 32 29 26
44 49 60 70 56 59 58 57 61 66 58 63 60 55 52 55 60 62 60 62 64 66 66 67 67 69 72 68 63 52 44 40 39 38 37 37 37 38 37 36 35 32 30 29
56 53 53 68 62 60 47 54 57 61 60 60 63 62 62 62 62 64 66 69 72 76 77 79 79 72 56 44 41 38 35 33 31 30 31 32 31 32 32 32 32 33 33 29
47 48 56 63 50 45 42 40 44 49 55 47 51 60 66 73 77 77 79 80 82 84 81 69 55 50 38 30 31 33 34 33 32 32 32 32 31 32 32 33 33 32 31 29
51 49 66 56 50 34 47 38 39 40 57 44 44 46 50 60 68 86 63 62 56 50 45 34 27 27 30 38 44 44 42 40 36 30 26 24 22 24 23 25 29 35 39 37
63 57 68 59 56 57 44 36 36 51 50 37 39 42 44 46 45 51 50 46 37 33 34 35 36 40 46 48 46 42 36 30 26 24 22 20 18 17 16 15 15 15 16 29
67 70 63 63 65 54 39 38 49 48 39 38 39 39 40 41 42 45 44 43 42 40 38 40 45 52 56 54 46 36 32 31 30 31 34 38 40 40 34 23 14 13 14 16
62 42 64 42 59 41 40 39 40 41 39 34 35 38 41 45 45 43 41 39 40 41 43 48 59 64 59 46 40 39 39 41 46 50 51 50 49 48 47 45 42 35 18 13
35 37 39 37 38 37 40 41 42 43 41 42 42 42 41 41 40 39 38 39 42 47 58 66 67 61 49 44 44 46 51 52 50 44 38 33 30 27 25 25 25 27 30 28
47 39 37 34 36 37 37 40 40 42 43 42 40 36 33 34 36 34 37 39 46 58 67 65 57 49 49 53 52 46 38 27 18 12 9 8 8 7 6 7 7 7 6 8
26 30 36 54 35 38 34 35 37 35 36 35 34 33 34 34 36 40 42 51 57 64 55 51 53 55 42 26 18 15 15 16 16 14 12 12 11 11 11 10 11 17 14 11

GFSCGP_700_rhum_087.txt.gz
RH
82 85 75 75 85 92 98 92 83 53 55 94 85 72 60 65 79 70 69 61 68 56 70 79 85 72 59 68 78 93 99 96 100 100 79 64 78 98 100 98 80 34 35 35
77 60 66 79 78 97 94 99 92 71 70 97 98 79 61 83 89 85 85 72 68 70 91 86 89 82 85 81 74 87 97 98 94 97 94 77 72 95 100 100 98 84 50 43
63 52 62 75 76 96 91 96 88 92 92 96 91 83 71 81 92 87 81 82 80 87 77 79 91 84 80 68 66 72 93 100 100 96 100 99 90 97 98 98 97 100 97 73
70 75 87 87 84 95 98 97 100 99 98 94 83 89 67 77 84 85 79 83 83 80 86 89 99 85 84 85 70 89 100 100 100 100 100 100 98 94 94 97 96 100 98 96
65 74 82 86 99 98 94 98 100 98 98 95 88 98 89 80 94 91 74 68 77 75 66 93 99 96 100 99 88 92 98 100 100 100 100 100 99 99 97 99 99 98 100 100
73 82 88 96 88 90 99 97 99 100 96 99 76 93 96 98 98 84 67 67 79 86 77 80 100 98 100 97 89 100 100 99 99 100 100 100 100 100 100 100 100 100 99 99
88 91 99 98 93 94 98 98 98 98 98 98 92 93 97 98 100 100 99 88 93 100 98 100 100 100 99 99 100 100 100 99 99 99 100 100 100 99 100 97 97 99 98 93
100 93 98 99 97 99 99 99 98 97 97 98 92 99 100 96 99 99 99 99 100 99 100 100 100 100 100 100 100 99 94 92 98 97 99 100 100 100 100 98 98 99 94 100
98 99 99 93 93 99 98 98 98 99 89 97 97 98 99 99 99 100 99 100 99 99 100 100 100 100 100 100 100 97 91 88 89 92 93 92 97 98 95 92 96 99 99 98
98 96 88 92 82 78 91 83 84 94 97 96 98 98 98 98 98 98 99 99 100 100 100 100 100 100 100 100 94 91 87 86 87 84 82 80 83 88 88 88 92 91 92 91
98 96 76 79 74 69 70 64 64 67 64 81 89 98 98 98 99 99 99 100 100 100 99 100 100 100 100 99 99 97 93 89 86 84 81 78 75 76 79 84 88 85 87 87
93 88 83 77 76 70 65 61 59 59 59 67 76 98 98 99 99 99 99 99 99 99 100 97 94 92 86 77 71 68 65 56 51 48 46 45 43 42 40 39 38 39 40 42
77 76 83 75 70 52 59 48 49 48 56 72 82 98 100 87 91 98 98 98 95 91 85 76 70 65 60 57 55 53 51 50 48 46 45 42 40 40 38 36 34 34 32 31
69 77 78 81 82 77 67 48 45 41 53 67 65 72 73 62 59 62 67 63 62 60 60 57 60 56 55 54 55 57 57 55 55 54 53 50 48 45 44 41 41 39 37 35
55 60 66 72 69 57 55 53 50 46 54 49 64 58 63 65 63 58 64 64 63 64 63 61 60 59 61 60 62 60 58 56 57 55 51 47 44 42 41 40 40 40 41 40
52 56 56 63 59 51 47 48 52 56 56 59 68 68 67 62 62 64 63 57 58 59 62 62 64 66 66 67 66 68 64 55 45 39 36 34 32 32 31 32 33 32 31 32
43 44 58 48 54 63 48 49 50 59 68 72 71 62 62 63 64 63 63 62 60 59 64 66 70 69 67 67 68 56 45 39 30 23 21 20 20 21 20 22 25 25 27 27
39 42 46 55 62 68 38 45 50 55 56 60 62 67 70 63 62 63 64 66 68 71 70 72 73 68 65 63 52 37 29 28 30 34 34 35 36 36 37 37 35 34 34 34
42 39 40 52 50 46 49 37 37 37 43 43 54 62 67 70 71 68 67 68 73 77 80 76 68 56 46 38 33 34 34 34 37 41 45 47 48 47 46 43 41 40 39 36
43 42 42 52 53 50 49 38 34 32 43 40 39 44 46 48 53 60 68 68 70 69 66 58 52 47 44 42 38 37 39 41 45 46 46 49 49 46 41 39 40 43 46 47
31 34 42 54 46 48 50 42 36 34 42 39 32 31 29 32 37 37 40 43 45 48 47 45 42 39 38 40 41 46 50 56 54 49 44 36 30 28 31 34 40 42 44 48
28 35 55 54 57 45 41 34 30 29 28 28 28 29 27 28 31 34 36 37 38 34 31 29 31 33 37 43 48 48 42 34 32 32 30 35 45 49 50 51 51 52 52 49
33 25 40 41 38 44 36 29 30 28 29 28 30 32 34 34 35 35 33 33 33 33 33 33 35 37 43 41 32 24 17 13 12 11 12 16 17 20 24 28 31 33 32 31
29 24 25 22 20 24 26 25 28 28 31 33 33 33 36 37 34 33 33 32 32 33 36 34 35 31 26 19 13 10 9 11 12 12 13 14 16 17 17 18 19 17 16 17
24 24 23 19 22 24 24 24 27 29 29 28 26 25 24 25 25 25 26 27 28 28 25 24 22 17 10 7 6 7 10 13 14 16 19 23 24 25 26 26 24 20 18 19
13 13 16 16 18 21 22 24 23 24 24 25 24 23 22 22 22 22 22 22 20 21 21 17 10 6 6 6 6 8 11 12 16 20 30 37 34 26 21 20 18 20 18 16

GFSCGP_700_rhum_090.txt.gz
RH
41 56 53 67 72 75 76 86 86 59 77 100 64 69 62 60 59 66 71 61 39 31 28 62 66 54 43 40 53 57 51 76 87 98 93 93 98 83 75 86 99 84 40 26
66 68 67 67 66 75 89 100 79 71 86 99 97 74 66 64 48 87 89 72 71 43 51 50 54 54 47 62 68 66 67 71 84 94 94 98 100 97 73 85 96 98 86 58
73 71 70 68 72 87 83 88 85 98 100 85 87 84 61 66 66 80 81 82 72 69 65 58 59 73 75 74 71 71 68 67 66 80 92 95 97 99 99 86 97 97 93 65
95 78 81 81 80 97 98 83 99 98 94 92 92 85 72 78 75 82 81 80 82 67 65 68 80 76 81 89 83 72 77 84 73 67 90 98 96 99 100 83 98 98 98 97
79 78 84 80 81 87 71 100 100 99 97 95 95 99 73 69 74 73 79 76 84 74 79 87 72 84 98 100 99 96 92 90 78 97 99 100 100 100 100 99 99 100 100 99
80 85 87 88 83 86 78 92 98 98 98 99 86 80 90 84 90 97 86 73 68 68 74 86 76 88 99 98 99 98 100 99 82 100 100 100 100 100 100 100 100 100 100 100
99 92 100 89 88 94 87 99 98 98 98 98 96 91 97 100 97 100 99 81 80 88 96 89 100 99 100 100 100 100 100 100 97 100 100 100 100 100 100 100 100 99 100 100
97 82 98 89 87 96 99 99 98 97 97 97 98 97 100 98 100 98 100 100 98 99 100 99 99 100 100 99 100 100 98 100 100 100 100 100 100 100 100 100 100 99 100 100
92 96 99 95 94 98 98 98 99 99 94 92 96 98 98 99 100 99 100 99 99 99 99 99 100 99 100 100 100 99 100 100 98 99 100 99 98 99 100 100 100 100 100 98
98 93 91 92 85 90 97 99 96 97 98 96 96 98 98 99 99 99 99 99 99 99 99 99 99 99 100 100 100 100 98 97 94 94 93 88 93 95 91 96 98 98 100 99
96 94 76 79 81 78 80 92 79 73 76 95 86 97 98 98 98 98 99 99 99 99 99 99 99 99 99 99 97 95 86 81 77 75 76 75 69 66 73 82 89 89 91 95
85 80 74 66 62 66 68 63 66 60 65 68 74 94 99 99 99 99 99 99 99 99 100 99 97 91 90 81 74 67 56 51 48 46 44 43 42 41 40 40 40 43 49 59
76 78 80 67 58 54 60 52 49 54 59 75 76 76 95 100 100 99 97 94 96 89 76 70 70 67 63 61 58 56 54 51 49 46 46 44 42 42 42 40 37 38 39 39
65 72 77 74 77 74 59 47 43 48 52 66 60 69 79 84 74 71 70 71 74 73 70 68 68 66 64 61 59 59 58 57 56 55 53 51 49 47 45 41 42 41 40 40
52 57 61 58 62 59 57 50 44 42 52 48 55 52 54 63 63 61 60 62 66 66 65 64 67 66 66 66 65 64 62 58 56 54 49 45 42 40 40 40 40 40 39 39
51 54 54 58 56 65 55 57 51 51 59 60 62 60 62 62 64 67 66 65 65 64 64 68 66 68 67 67 67 68 66 56 45 39 34 30 26 24 23 23 24 25 27 29
44 43 53 46 52 60 48 46 52 62 63 58 60 55 57 59 61 62 64 66 68 66 66 68 68 68 72 70 62 53 44 35 28 23 22 23 23 23 25 26 26 26 26 26
41 43 43 54 55 52 34 42 44 47 48 51 49 50 57 58 58 59 63 66 68 70 66 68 69 67 53 47 37 31 27 26 25 23 22 23 28 31 30 28 25 25 24 22
41 41 40 50 49 38 36 32 35 35 35 37 43 48 53 58 61 62 64 63 65 65 64 63 53 41 37 30 26 27 27 26 27 27 33 39 41 39 37 36 33 29 26 26
41 42 46 48 50 49 46 35 36 33 33 38 38 43 50 56 52 57 58 54 57 59 56 44 40 39 36 34 31 31 33 34 36 37 35 29 22 20 22 21 19 20 27 33
27 34 40 47 43 34 41 40 38 37 32 37 33 32 33 35 37 36 36 38 39 40 39 39 35 35 35 34 35 36 34 28 24 20 17 17 18 19 23 24 26 27 29 31
28 28 36 48 48 39 34 35 32 28 27 28 28 29 29 28 30 33 34 34 34 34 36 36 36 34 32 26 21 18 16 12 9 7 7 7 9 13 23 32 36 39 40 40
33 24 25 31 23 28 32 33 28 28 27 27 27 28 29 30 33 33 33 32 32 32 31 29 27 23 21 19 15 9 6 6 6 6 6 7 9 10 12 12 12 12 14 15
26 27 27 21 16 17 20 22 24 24 26 27 29 30 30 30 29 27 29 29 32 32 28 25 21 19 15 9 6 5 5 4 5 6 8 10 12 12 13 18 23 22 22 24
25 24 23 18 18 20 21 22 25 26 27 28 27 27 28 29 28 26 28 29 28 26 21 20 17 10 7 6 5 4 5 8 13 15 13 10 11 14 16 21 30 33 27 22
16 12 14 12 15 17 17 20 23 24 25 26 29 27 23 23 24 24 25 22 20 19 18 12 8 6 5 4 5 11 16 19 17 11 8 9 10 13 17 20 22 44 39 26

GFSCGP_700_rhum_093.txt.gz
RH
39 28 38 52 53 56 62 72 79 66 84 100 72 74 48 52 62 65 45 83 62 28 18 23 49 71 84 74 67 56 46 33 46 56 56 60 70 84 88 93 92 90 93 92
31 41 50 52 56 70 83 94 70 82 91 99 98 77 58 60 67 51 69 79 71 80 46 31 38 63 73 63 58 57 41 38 58 67 60 58 75 87 88 99 93 98 96 100
43 53 60 73 84 88 90 100 83 98 95 82 94 83 75 66 67 68 85 85 78 73 51 44 32 44 51 53 47 41 53 68 68 63 61 67 76 88 98 100 98 98 98 99
61 60 72 87 84 97 100 89 99 96 99 96 95 90 80 75 76 83 86 83 80 66 68 53 40 33 34 44 60 62 64 69 61 58 68 76 84 86 97 100 100 97 96 97
78 76 83 91 84 99 99 96 99 99 99 96 98 100 85 75 78 75 79 89 86 86 85 81 72 68 68 65 69 82 72 81 75 74 84 84 85 74 75 98 100 100 100 100
79 93 91 92 100 100 99 99 100 100 98 99 93 95 77 84 78 74 79 66 71 78 82 85 89 96 82 87 96 87 97 100 98 92 78 100 93 99 98 99 100 100 99 99
100 96 99 100 99 100 98 100 96 98 98 92 93 93 86 92 99 100 100 98 85 93 90 81 98 87 81 98 94 97 99 99 99 100 99 99 100 100 100 100 100 100 100 100
88 84 99 99 97 99 99 100 98 97 97 96 95 98 90 94 100 99 97 99 99 98 99 100 93 99 99 100 100 100 100 100 100 100 99 99 96 98 99 100 100 99 100 100
88 91 93 88 94 100 100 99 99 98 99 95 96 98 97 96 99 99 96 98 99 99 99 100 99 99 99 100 100 99 100 100 98 97 100 100 100 99 99 98 100 100 100 100
96 92 82 82 87 97 99 98 98 98 97 96 93 98 99 98 98 96 98 98 98 98 99 99 99 99 99 99 99 99 100 99 99 98 96 96 95 86 95 100 100 99 100 100
100 94 69 77 72 79 81 84 90 96 96 97 90 94 99 98 98 98 98 98 98 98 98 99 99 99 98 97 82 76 63 62 60 54 54 63 61 49 52 68 90 92 90 92
83 76 68 58 70 67 69 77 74 75 67 74 76 92 100 100 99 99 99 98 99 99 99 99 99 97 70 65 61 58 55 53 52 48 46 47 46 45 44 44 41 40 42 52
77 78 78 57 56 54 62 71 60 69 65 71 77 78 98 99 98 99 99 90 85 76 73 74 72 71 70 67 66 63 63 61 59 57 54 52 48 46 46 46 45 44 43 42
70 69 72 69 71 70 59 53 54 55 56 65 65 74 91 96 95 79 74 72 72 72 74 75 74 73 71 67 66 64 62 59 57 55 53 50 48 46 44 44 45 46 46 46
51 56 60 61 58 56 57 52 53 45 52 53 57 61 65 67 70 70 70 71 72 71 71 71 71 68 64 63 62 61 61 60 56 49 42 37 34 31 30 29 28 29 30 32
47 51 51 51 51 56 48 49 53 50 51 52 56 57 54 54 59 64 66 64 64 64 65 66 65 65 65 64 62 60 52 44 35 30 26 22 20 20 19 18 19 20 20 19
44 44 45 42 50 57 50 40 41 44 48 50 51 57 58 60 62 64 64 65 65 67 66 66 67 69 66 61 56 43 33 26 23 22 20 18 17 17 15 16 16 16 18 18
38 40 40 45 40 60 30 34 36 36 38 37 40 45 54 56 62 63 66 69 71 70 71 70 69 67 55 40 31 26 22 19 17 17 16 15 14 14 15 16 14 16 17 16
39 39 41 44 48 33 25 27 28 28 28 27 29 34 40 44 45 51 58 60 62 60 62 58 45 35 29 24 19 18 18 18 16 14 13 13 13 13 13 13 12 12 12 12
34 40 43 43 45 41 32 30 29 32 26 23 30 28 26 27 24 36 32 32 35 30 31 30 34 33 29 29 29 28 23 18 16 15 12 8 7 7 7 7 7 8 10 12
27 28 35 47 47 27 27 37 36 34 25 25 28 25 24 26 28 26 29 30 34 38 39 38 38 37 36 29 23 18 16 15 10 8 7 6 5 4 4 4 5 4 4 4
32 28 29 44 49 34 26 33 32 23 23 24 27 30 31 31 31 32 34 35 36 38 40 38 34 29 22 18 16 15 10 8 7 5 4 4 6 8 10 11 12 12 12 11
28 27 24 30 22 19 23 25 26 25 26 26 27 28 28 29 31 31 31 30 32 32 32 27 24 21 18 16 11 8 7 6 4 5 9 12 13 14 13 10 7 6 6 6
21 23 25 22 14 14 16 18 18 22 23 24 24 24 23 21 20 22 25 26 26 25 24 20 17 17 13 9 8 6 5 5 8 12 13 13 12 8 5 6 8 8 8 9
25 28 23 17 12 14 14 16 20 21 24 25 25 22 23 24 24 24 23 22 21 20 18 18 16 11 9 8 6 5 7 10 13 14 14 11 6 5 6 14 19 19 16 15
16 11 13 11 12 13 15 18 19 20 22 23 22 24 23 20 20 20 19 19 18 18 18 14 10 9 8 5 5 8 11 14 16 16 14 8 5 8 24 33 34 37 39 36

GFSCGP_700_rhum_096.txt.gz
RH
35 28 27 36 35 39 52 58 62 61 80 89 66 51 38 51 53 50 50 52 39 52 62 26 18 12 54 79 76 74 72 64 55 44 45 26 18 23 43 53 62 72 78 81
28 40 41 45 46 50 57 67 64 67 81 98 77 52 54 64 62 64 62 68 70 83 81 57 31 14 52 78 83 82 72 63 53 47 49 32 32 47 44 53 66 71 75 85
35 51 46 53 62 65 71 80 78 100 94 88 82 55 60 67 75 74 83 89 86 79 80 66 48 36 45 69 89 76 65 57 50 43 31 36 50 55 50 58 76 82 79 97
51 55 60 68 63 74 97 96 99 99 100 98 94 90 70 76 75 86 91 93 97 87 78 84 84 66 50 64 70 69 55 50 37 48 59 59 61 54 53 59 73 74 83 97
65 65 70 71 84 98 81 99 96 98 99 99 95 99 76 84 77 79 71 74 86 96 89 85 78 75 60 56 51 40 32 40 54 57 64 67 64 68 57 70 76 74 73 81
72 72 77 86 94 94 98 99 91 97 100 98 85 98 73 88 88 86 70 67 84 78 86 87 86 79 75 74 72 51 74 71 72 62 67 71 81 80 88 96 93 97 72 86
86 89 98 98 97 99 99 99 92 94 99 92 99 99 74 94 99 100 100 98 98 91 86 92 96 81 78 81 84 74 83 88 92 100 100 100 100 97 96 99 100 100 98 98
79 75 93 99 100 99 99 99 99 96 97 93 99 98 92 97 98 99 100 99 100 100 98 99 100 99 98 98 100 99 100 100 100 100 93 88 95 100 89 93 100 98 99 100
79 89 88 97 99 99 99 98 99 99 99 98 92 94 96 98 100 100 100 100 100 98 99 99 99 99 99 100 99 100 100 99 100 100 100 100 100 99 98 98 100 99 99 100
94 95 83 90 92 83 92 96 98 98 97 96 95 96 98 98 98 98 98 99 98 98 98 98 99 98 99 99 99 99 99 99 99 95 96 99 95 95 89 87 91 99 100 100
98 99 78 80 68 78 79 85 89 96 97 97 95 96 99 98 97 98 98 98 98 99 99 99 99 99 98 96 94 87 89 86 79 63 58 57 59 54 48 48 50 58 71 79
94 87 68 59 68 76 70 80 82 88 71 80 82 89 100 99 98 100 99 99 98 98 98 98 97 94 82 78 76 73 70 66 64 60 56 55 55 53 52 49 47 46 46 46
81 78 70 58 60 56 60 72 69 71 82 76 80 84 99 98 100 100 98 97 96 93 88 82 80 78 76 72 67 64 62 61 60 58 54 51 49 46 43 42 42 42 43 44
67 67 71 66 63 62 54 65 62 64 64 63 71 94 99 96 87 76 73 75 78 77 75 74 75 74 72 69 67 66 66 63 58 52 45 40 36 33 30 29 28 27 27 27
57 54 54 54 52 55 57 52 60 54 53 51 56 62 63 64 64 68 72 72 73 73 74 75 75 73 71 69 66 63 58 52 41 32 26 22 19 16 14 13 12 12 12 13
52 48 48 40 43 48 47 44 44 52 55 51 50 53 55 58 61 64 66 68 70 72 72 71 69 72 75 73 68 58 41 31 25 21 18 18 16 14 14 13 14 13 12 12
47 46 44 38 39 39 41 31 35 39 42 45 50 48 54 56 57 61 62 65 68 71 73 75 78 73 69 64 55 40 30 23 20 18 17 15 12 11 11 12 12 12 12 12
46 46 46 40 38 50 25 26 27 27 27 30 34 37 46 51 55 57 63 68 73 71 71 73 67 64 54 41 33 28 23 19 15 12 11 11 12 13 13 12 11 10 10 10
42 45 45 43 40 24 22 24 25 25 21 24 26 31 40 46 45 48 54 55 57 58 54 49 47 38 36 29 20 17 16 12 11 13 14 12 10 10 8 6 5 5 4 4
36 36 41 44 44 36 22 28 27 28 20 19 25 31 29 28 26 35 28 29 28 28 25 24 23 20 18 18 18 15 13 14 15 12 10 9 7 5 4 4 6 8 8 9
27 29 33 38 44 21 22 25 32 29 19 16 14 15 17 18 18 19 19 20 21 22 22 22 22 23 22 19 16 16 16 13 11 10 8 5 4 5 8 10 10 9 9 7
27 27 26 39 48 34 18 21 25 21 18 18 18 18 19 21 21 21 20 21 22 23 23 24 24 23 19 16 16 16 12 10 9 6 5 5 8 12 12 12 11 8 5 5
24 20 23 22 14 14 14 18 19 19 21 23 22 22 22 22 22 22 23 23 23 23 22 21 19 17 16 17 14 12 10 8 5 5 7 10 13 14 14 12 10 6 5 7
22 24 25 22 14 13 14 15 17 18 19 20 22 23 24 24 21 20 20 20 20 18 17 16 16 16 16 13 11 9 7 4 5 8 11 13 14 15 16 14 9 6 9 18
32 32 28 20 13 16 14 12 15 16 17 21 22 22 21 20 21 21 20 19 18 16 16 16 17 16 12 11 9 6 5 6 9 12 14 16 18 18 18 15 10 11 25 27
18 15 18 20 20 17 15 15 15 14 14 15 16 18 20 20 19 19 18 17 17 16 17 18 16 12 11 10 6 5 7 11 14 16 18 19 19 20 20 18 12 16 18 17

GFSCGP_700_rhum_102.txt.gz
RH
44 35 31 26 21 19 20 31 38 40 48 43 45 36 42 47 37 45 39 32 34 39 38 34 32 37 41 40 24 19 18 49 63 77 92 87 78 74 66 58 51 48 43 38
37 28 24 21 23 33 38 43 45 46 60 63 52 40 44 44 54 52 43 35 40 39 52 62 56 59 58 51 28 19 20 59 99 98 91 82 76 68 62 53 45 48 45 40
27 28 26 34 37 43 45 48 48 60 67 80 63 66 50 53 61 61 57 48 59 68 62 65 63 70 50 39 30 23 26 94 93 89 84 77 70 61 56 49 48 45 38 37
31 34 36 42 48 48 48 55 63 77 97 91 89 78 77 66 66 70 71 72 60 70 73 68 67 75 62 33 31 31 63 82 84 82 84 75 66 61 55 51 42 35 51 53
46 47 51 52 52 58 74 69 84 89 100 99 94 100 73 66 68 77 83 82 85 75 60 69 82 83 72 70 71 79 85 88 93 83 72 72 66 57 50 34 45 51 58 63
53 56 69 74 71 73 74 79 79 98 100 95 83 95 69 78 84 86 94 99 100 98 67 72 94 98 77 64 73 82 90 88 94 86 82 72 60 46 33 54 76 85 97 93
77 83 79 82 90 85 84 89 86 86 93 79 88 98 79 78 98 91 96 99 98 99 100 99 99 99 98 80 59 55 67 79 75 66 58 53 76 65 88 93 95 100 94 100
76 92 87 91 90 90 100 95 96 88 74 71 96 91 95 91 90 91 91 98 99 100 99 100 98 99 98 98 92 79 75 72 63 59 94 98 97 98 99 100 100 96 98 100
91 86 88 88 88 92 94 98 99 98 91 95 77 96 88 89 88 89 90 92 95 99 95 100 98 98 99 98 99 99 99 100 100 100 100 100 99 100 100 99 100 95 91 99
80 86 81 82 90 88 92 98 99 98 90 74 64 87 92 90 91 92 91 92 95 94 97 99 99 98 98 98 98 99 98 98 98 99 99 99 98 99 99 87 79 76 69 79
72 72 70 78 77 96 95 99 88 95 100 75 65 66 81 88 94 95 92 91 90 92 99 99 98 98 99 98 96 96 95 95 93 87 85 71 60 63 61 59 54 52 54 54
67 66 65 67 73 80 79 82 76 84 79 81 76 65 82 80 81 82 82 87 92 99 99 99 97 95 93 87 84 83 78 69 63 56 50 44 40 36 34 32 31 30 30 29
62 63 78 60 63 67 56 57 62 72 78 82 67 56 75 81 80 80 83 89 94 93 82 72 72 70 69 68 68 66 60 52 42 33 27 23 19 17 15 14 13 14 13 12
52 53 54 54 52 49 50 50 54 67 85 66 62 64 61 73 64 65 65 66 68 69 66 65 64 66 69 71 69 64 52 38 28 22 19 18 16 15 14 13 12 11 10 10
57 56 50 41 42 44 40 40 49 49 58 66 50 45 47 50 53 56 57 57 59 60 61 62 63 65 66 62 55 43 31 22 18 17 16 14 12 11 11 12 13 14 14 13
50 53 45 28 30 33 35 35 39 43 43 44 45 38 42 46 49 51 55 55 57 59 62 64 65 64 60 53 39 28 23 21 20 18 16 14 13 14 15 14 13 12 12 11
50 53 53 48 35 36 34 19 20 23 30 30 36 28 32 38 46 52 57 60 63 64 65 64 59 49 40 34 30 29 28 26 21 17 14 14 15 15 15 14 12 11 9 7
51 54 54 46 37 46 19 18 19 22 25 25 24 27 29 32 42 46 47 52 54 51 48 42 36 34 35 34 34 33 28 21 16 14 15 16 15 14 13 12 10 7 5 3
45 55 51 52 54 22 14 15 19 24 19 21 20 25 25 26 31 31 32 34 36 35 37 34 33 33 35 35 35 30 24 20 17 17 16 15 14 13 12 9 6 4 4 5
34 47 59 63 50 22 13 17 19 23 20 15 14 13 18 23 21 24 22 25 27 29 30 32 35 34 31 29 25 20 17 16 17 17 14 13 12 10 7 5 5 6 7 8
29 37 52 74 61 21 11 13 18 25 14 14 14 15 17 18 24 23 25 27 28 28 28 27 27 28 28 22 20 18 16 17 16 14 13 12 9 6 5 6 8 9 10 11
24 25 25 43 65 40 11 14 14 15 16 16 19 20 21 22 22 22 22 22 22 22 23 25 25 22 20 19 17 17 18 16 14 13 11 8 6 6 8 9 11 13 13 12
23 18 20 18 11 10 11 13 17 17 15 15 16 17 19 21 23 23 23 23 22 23 24 24 23 19 19 18 18 18 16 14 13 12 10 9 8 9 11 14 15 14 12 12
21 21 24 20 13 15 17 20 20 22 22 24 24 23 22 24 24 25 25 25 28 27 27 25 21 19 18 18 19 19 16 14 14 30 25 12 13 15 16 15 13 12 12 12
19 18 17 17 11 17 16 16 15 14 15 16 20 25 24 24 24 24 26 26 21 20 18 16 17 17 20 24 23 17 14 18 40 26 13 19 16 15 14 12 12 11 12 13
12 14 16 16 20 20 20 21 22 23 22 20 17 20 22 22 24 28 24 21 21 17 17 18 18 23 31 27 20 15 28 48 24 17 22 15 16 13 12 11 10 12 14 21

GFSCGP_700_rhum_108.txt.gz
RH
42 38 37 34 31 31 42 27 22 26 29 20 20 20 15 25 39 69 40 44 40 39 36 28 22 23 29 32 35 37 39 39 38 38 25 25 21 12 24 59 85 76 83 80
43 62 41 36 29 25 22 21 46 51 37 30 33 25 30 30 55 50 46 46 43 44 42 42 44 36 36 40 41 44 48 42 43 48 48 38 28 20 28 52 85 88 87 82
48 43 32 26 22 22 30 55 68 52 40 51 68 53 56 50 47 48 52 47 46 52 49 44 45 48 39 45 48 47 46 53 33 32 40 64 40 45 48 64 79 98 94 90
38 31 25 24 30 34 78 60 45 55 67 83 69 76 60 69 65 60 61 56 58 62 58 51 46 39 40 40 51 59 56 80 50 52 49 81 65 62 72 97 88 99 97 89
40 28 29 34 38 44 95 58 68 96 98 94 85 89 65 67 68 78 59 68 69 61 53 40 38 38 35 46 54 69 61 82 97 85 75 72 78 92 94 99 96 97 94 82
44 35 41 70 58 63 72 71 89 96 96 89 79 79 64 70 69 62 71 70 61 60 46 36 36 38 45 61 74 79 61 76 76 84 94 100 100 93 94 88 93 99 98 88
78 71 66 70 86 76 74 97 85 94 88 90 73 72 63 68 55 65 72 72 64 66 68 71 59 58 55 69 75 89 90 78 70 89 100 99 92 96 98 90 93 77 70 68
96 80 82 85 87 89 96 98 87 81 84 84 74 77 55 61 66 73 74 70 68 72 76 75 79 73 73 72 74 97 99 99 98 93 75 64 69 76 76 72 69 62 52 51
93 91 86 84 100 97 90 93 93 84 76 86 70 68 72 69 66 62 66 66 66 69 70 72 76 76 81 89 98 99 100 100 100 95 98 99 76 72 54 62 63 66 84 99
91 92 87 90 77 78 97 93 92 89 95 90 68 73 65 53 60 57 63 62 64 66 69 71 77 81 93 95 97 98 98 98 95 98 98 99 98 98 98 99 100 99 97 93
96 90 89 80 70 89 98 90 90 84 81 80 84 68 58 38 54 56 56 56 61 63 67 81 90 92 91 72 70 72 64 52 48 43 38 37 42 35 32 36 42 41 41 38
66 86 84 82 79 72 83 87 83 70 83 77 69 65 56 39 36 50 60 61 64 61 58 64 60 61 61 62 63 61 54 42 33 28 25 22 20 18 17 16 16 15 15 14
52 85 77 72 71 64 53 53 56 77 73 74 76 57 48 44 42 35 37 38 40 45 47 50 54 58 62 62 60 54 47 40 31 26 22 20 18 17 15 13 12 12 12 12
33 41 49 68 61 64 64 64 65 76 83 65 66 50 51 46 40 35 35 36 38 42 44 48 55 59 61 60 55 49 41 31 25 22 20 17 15 13 12 12 13 14 15 15
32 30 49 36 27 28 30 38 57 70 45 59 32 47 42 48 37 34 34 36 40 43 45 53 58 61 59 57 56 48 36 29 26 24 21 18 15 14 14 15 16 16 15 14
33 35 33 13 20 30 28 24 28 34 51 48 31 18 25 21 29 20 26 36 39 43 48 52 56 59 57 44 40 31 28 26 24 23 20 17 16 16 17 16 15 15 14 13
38 38 40 29 45 35 21 11 12 12 15 17 37 12 36 41 35 26 24 26 32 40 46 49 50 43 31 27 26 25 25 26 23 19 17 16 17 17 17 16 16 16 15 13
50 52 54 45 39 73 26 21 13 11 11 17 16 15 34 26 24 24 26 26 28 36 40 40 34 28 26 28 26 25 26 24 22 20 18 18 18 19 18 18 17 20 29 33
32 54 75 76 67 25 15 12 12 15 8 10 10 14 18 21 15 18 23 22 24 28 19 19 19 21 22 24 28 29 27 24 20 18 18 20 23 20 17 18 33 43 41 34
31 44 74 71 63 51 22 20 13 12 10 12 10 10 10 10 10 11 10 14 17 17 19 18 20 23 23 25 26 26 22 19 18 20 26 27 21 19 21 36 44 35 36 34
28 34 46 60 76 30 15 20 17 13 16 15 11 10 14 13 13 12 13 14 15 17 20 22 24 25 24 26 27 24 20 19 21 31 28 26 24 27 43 44 40 39 17 12
21 25 48 68 72 58 15 12 12 9 10 12 13 14 16 14 12 14 15 16 17 18 19 20 22 23 24 25 24 21 19 22 34 32 33 34 38 49 43 44 28 13 12 11
28 15 30 23 11 8 10 11 13 15 16 17 17 18 20 21 18 20 23 20 20 21 22 22 23 24 26 23 20 19 23 38 35 35 36 47 51 41 42 22 13 13 12 11
26 21 21 18 11 13 16 17 18 18 18 19 16 17 17 14 18 18 24 26 24 24 26 25 23 24 23 21 20 21 39 38 36 38 45 48 40 42 23 14 13 13 12 18
22 20 21 18 16 21 21 22 21 22 20 15 15 15 17 19 18 17 18 29 29 26 27 29 26 25 21 20 20 38 42 38 38 42 43 41 45 28 15 14 14 12 19 22
16 17 22 20 21 22 19 22 23 24 19 19 17 17 20 22 22 20 17 22 27 29 29 29 26 23 20 20 28 44 43 40 39 39 44 49 35 17 15 14 13 16 26 31

GFSCGP_700_rhum_114.txt.gz
RH
51 42 34 27 24 21 21 18 24 19 18 15 15 12 16 18 16 14 13 17 24 28 32 35 37 39 37 36 29 29 22 23 27 30 31 29 28 33 36 35 31 31 22 15
42 35 31 29 28 36 42 38 25 19 21 22 20 14 15 13 12 19 28 29 34 37 40 46 48 45 40 36 21 25 23 27 34 44 40 38 38 32 34 37 43 48 32 34
36 39 33 33 33 31 25 24 27 29 28 22 20 18 17 17 24 30 31 42 45 50 54 51 49 42 36 23 20 23 23 34 52 54 41 48 44 40 34 39 39 55 37 34
45 44 40 34 27 27 24 30 32 30 27 26 25 32 14 19 31 32 39 48 52 57 59 56 54 43 33 24 20 20 29 46 53 51 38 54 54 59 61 77 70 55 54 75
44 37 30 28 29 34 36 43 39 37 40 35 40 59 29 34 35 40 47 54 59 62 63 61 52 48 38 40 32 32 42 46 50 52 40 56 57 78 78 91 86 95 90 98
36 35 35 31 31 36 41 42 56 60 59 68 71 68 37 37 42 48 53 57 63 67 64 53 50 52 48 46 46 46 49 53 54 54 47 46 48 69 87 100 99 99 99 94
45 47 49 48 50 49 48 48 64 74 87 78 78 80 38 43 49 53 55 57 60 59 56 54 52 47 48 50 52 50 51 55 59 67 81 83 84 83 68 71 88 100 100 98
52 60 59 68 66 64 54 57 75 81 97 89 84 81 41 52 47 51 52 51 48 45 46 47 47 50 52 53 51 56 56 59 60 69 79 89 98 100 99 99 92 90 98 98
54 75 74 85 98 75 80 83 82 85 90 97 68 55 49 53 28 38 48 47 45 46 46 46 46 51 53 27 36 46 54 58 35 32 37 77 66 48 42 69 81 96 98 100
68 82 90 94 90 88 85 85 84 87 91 92 70 66 50 53 30 22 24 33 42 42 39 35 30 28 24 29 36 37 35 28 21 18 18 19 21 20 20 19 20 20 21 21
77 74 87 96 69 61 82 85 80 82 80 92 90 46 50 55 46 28 22 22 23 24 26 26 23 19 22 27 29 27 23 22 20 19 18 18 18 17 17 16 16 15 14 14
77 81 72 61 76 83 82 83 72 73 74 78 83 45 30 45 45 25 20 18 19 20 20 20 20 20 20 21 23 24 25 24 22 21 22 21 20 19 17 15 14 14 15 15
58 70 73 79 77 82 95 82 83 77 79 78 84 36 30 37 23 21 25 20 19 19 21 23 23 24 26 26 27 26 26 26 24 25 23 22 20 18 17 16 16 16 17 18
54 57 53 55 60 64 72 58 63 78 84 73 52 19 16 17 18 22 21 20 19 18 21 25 25 27 27 28 31 28 24 26 25 23 23 22 19 17 16 16 17 21 26 28
41 35 33 27 27 40 37 38 45 54 40 67 17 17 5 10 15 20 23 19 17 17 18 23 28 27 27 36 39 29 29 29 28 28 28 25 19 18 17 19 30 34 30 31
33 32 28 16 17 24 24 19 20 26 30 35 19 11 12 11 12 12 15 21 22 19 19 21 29 32 34 40 40 34 33 30 28 28 26 21 19 18 21 35 34 31 32 36
43 40 41 26 27 25 16 8 8 9 11 11 21 4 8 7 10 11 14 18 21 24 22 21 22 33 38 41 38 31 29 32 29 26 25 20 19 20 38 34 32 34 39 42
42 49 52 38 27 44 10 14 15 18 13 13 8 4 6 7 8 8 9 11 14 15 16 19 22 26 34 36 27 26 30 29 27 28 26 20 19 37 35 32 32 33 37 42
30 45 47 47 58 16 10 10 13 11 7 8 7 7 7 7 7 8 13 12 11 12 14 16 21 25 34 35 34 34 29 26 27 26 22 20 30 38 33 32 31 34 40 45
29 40 55 69 65 48 11 12 12 12 9 10 8 10 10 9 9 11 14 16 14 12 14 20 26 21 21 21 24 24 23 22 24 24 21 21 40 36 34 32 34 38 43 40
27 36 47 67 76 19 8 10 13 17 10 12 14 17 19 16 15 16 18 20 20 17 17 18 19 20 21 23 24 24 23 23 25 22 20 33 40 35 33 34 36 41 42 34
19 21 26 61 76 40 12 14 17 18 19 21 24 26 27 27 25 25 25 24 25 24 22 22 24 24 25 26 27 26 26 29 27 22 22 41 40 34 34 37 38 41 40 26
23 17 16 17 12 12 15 17 19 21 23 26 27 28 27 28 30 29 26 22 22 22 26 27 29 31 31 30 30 31 32 30 24 21 30 44 40 36 37 38 39 40 35 19
21 23 25 24 15 19 21 24 24 26 28 27 29 29 31 31 30 27 23 20 21 24 26 25 24 32 36 34 36 39 35 28 22 22 38 46 42 39 40 40 40 40 28 14
32 31 31 32 25 28 25 26 31 33 35 37 35 33 33 32 31 26 21 23 26 30 32 28 29 35 37 35 37 38 34 26 22 24 44 49 45 43 42 42 41 39 22 13
30 36 38 34 32 33 24 24 23 24 32 38 37 34 31 27 23 21 16 13 11 19 36 33 33 47 47 44 43 39 33 27 23 28 48 52 49 45 44 43 43 34 17 12